Find Starlink 31680

NORAD ID: 59380 Int'l Des: 2024-062 Owner: SPXS Country: US Constellation: starlink operational
LEOCIRCULAR

Current View

Loading 3D Globe...

About Starlink 31680

Starlink 31680 (NORAD 59380) is a starlink constellation satellite (v2 mini) launched Apr 2, 2024 by SPXS of US. It operates in LEO, CIRCULAR orbit with a mass of 730.00 kg.

About Starlink 31680

Description loading...

Upcoming Passes

Passes for default location (London). Set your location on the main map for personalized predictions.

Altitude History

Loading altitude history...

Two-Line Element Set

1 59380U 24062G 26166.29740167 .00003491 00000-0 11439-3 0 9994
2 59380 53.1593 163.8471 0001137 91.8995 268.2138 15.34405234124554
Epoch: Jun 15, 2026 • Age: 10 hours

Current Status

Altitude 479.4 km
Velocity 7.63 km/s
Sub-Earth Point -46.91°S, 133.14°W
Launch Date Apr 2, 2024
Age 2.2 years
Type internet

Technical Details

Classification Payload
Mass 730.00 kg
Dry Mass 700.00 kg
Total Mass 730.00 kg
Length 0.30 m
Diameter 4.10 m
Span 29.00 m
Shape Box + pan
Manufacturer SPXS
Bus Type Starlink V2M
Phase Status In Orbit
Owner/State SPXS/US

Most Searched